Regional Weather Roundup
Issued by NWS

Home | Current Version | Previous Version | Text Only | Print | Product List | Glossary On
Versions: 1 2 3 4 5 6 7 8 9 10 11 12 13 14 15 16 17 18 19 20 21 22 23 24 25 26 27 28 29 30 31 32 33 34 35 36 37 38 39 40 41 42 43 44 45 46 47 48 49 50
000
ASUS45 KBOI 260310
RWRID
WEATHER ROUNDUP FOR IDAHO
NATIONAL WEATHER SERVICE BOISE ID
900 PM MDT FRI JUL 25 2014

NOTE: "FAIR" INDICATES FEW OR NO CLOUDS BELOW 12000 FEET
WITH NO SIGNIFICANT WEATHER AND/OR OBSTRUCTIONS TO VISIBILITY

IDZ012-014-260400-
SOUTHWEST IDAHO


CITY           SKY/WX    TMP DP  RH WIND       PRES   REMARKS
BOISE          CLEAR     80  22  11 NW7       29.97S
CALDWELL       CLEAR     79  34  19 NW5       29.99S
MOUNTAIN HOME  CLEAR     81  21  11 W10       29.98R
$$

IDZ016-017-260400-
SOUTHCENTRAL IDAHO


CITY           SKY/WX    TMP DP  RH WIND       PRES   REMARKS
BURLEY         CLEAR     71  41  33 SW8       30.02R
JEROME         CLEAR     74  39  28 SW8       30.02R
TWIN FALLS     CLEAR     76  35  22 SW7       30.03R
$$

IDZ019>023-260400-
SOUTHEAST IDAHO


CITY           SKY/WX    TMP DP  RH WIND       PRES   REMARKS
IDAHO FALLS    CLEAR     77  33  20 S18G25    30.01R
POCATELLO      CLEAR     77  32  19 SW12      30.03S
REXBURG        CLEAR     71  35  26 S9        30.02R
$$

IDZ006-010-011-018-031-032-260400-
CENTRAL IDAHO MOUNTAINS


CITY           SKY/WX    TMP DP  RH WIND       PRES   REMARKS
MCCALL         CLEAR     71  25  17 W5        30.10S
HAILEY         PTCLDY    73  27  17 W9G16     30.09R
STANLEY          N/A     62  25  24 SW3       30.19R
SALMON         CLEAR     72  36  26 NE7       29.99R
CHALLIS        CLEAR     74  12   9 W7        30.05R
$$

IDZ002-004-006-007-026-260400-
NORTHERN IDAHO


CITY           SKY/WX    TMP DP  RH WIND       PRES   REMARKS
LEWISTON       CLEAR     80  40  23 N7        30.01R
LOWELL           N/A     67  50  54 N3        30.01R
COEUR D`ALENE  CLEAR     73  43  33 CALM      30.03S
MULLAN PASS    CLEAR     53  41  63 VRB6      30.20R
$$


USA.gov is the U.S. government's official web portal to all federal, state and local government web resources and services.